Location: Audinghen
(50.8518°N, 1.6129°E)
Time: 08:11:56
(UTC+00:00)

CBERS-1 - Pass Details

Date: 07 August 2020
Orbit: 769 x 777 km, 98.6° (Epoch: 26 September)

Event Time Altitude Azimuth Distance (km) Brightness Sun altitude
Rises 01:58:27 0° 17° (NNE) 3,266 8.8 -17.9°
Reaches altitude 10° 02:00:49 10° 22° (NNE) 2,333 7.8 -17.7°
Maximum altitude 02:05:54 58° 101° (E) 903 4.4 -17.3°
Enters shadow 02:09:11 21° 174° (S) 1,665 5.3 -17.1°
